NC4M Weather Reports


time (UTC)temp
C
wind
direction
speed
KPH
gust
KPH
rain 1hr
cm
rain 24hr
cm
rain mn
cm
humidity
%
barometer
mb
20260508065341 10 331 0.0 0.0 0.00 0.00 0.00 72 1014.2
20260508064839 10 331 0.0 0.0 0.00 0.00 0.00 70 1014.2
20260508064336 10 331 0.0 0.0 0.00 0.00 0.00 70 1014.3
20260508063834 10 331 0.0 0.0 0.00 0.00 0.00 70 1014.3
20260508063331 10 331 0.0 0.0 0.00 0.00 0.00 70 1014.3
20260508062828 10 331 0.0 0.0 0.00 0.00 0.00 70 1014.5
20260508062326 10 331 0.0 0.0 0.00 0.00 0.00 68 1014.4
20260508061822 10 331 0.0 0.0 0.00 0.00 0.00 68 1014.6
20260508061320 10 331 0.0 0.0 0.00 0.00 0.00 68 1014.3
20260508060816 10 331 0.0 0.0 0.00 0.00 0.00 68 1014.6
20260508060314 10 331 0.0 0.0 0.00 0.00 0.00 68 1014.6
20260508055814 10 331 0.0 0.0 0.00 0.00 0.00 67 1014.7
20260508055313 10 331 0.0 0.0 0.00 0.00 0.00 68 1014.5
20260508054809 10 331 0.0 0.0 0.00 0.00 0.00 68 1014.6
20260508054306 10 331 0.0 0.0 0.00 0.00 0.00 68 1014.4
20260508053803 10 331 0.0 0.0 0.00 0.00 0.00 68 1014.7
20260508053300 10 331 0.0 0.0 0.00 0.00 0.00 68 1014.6
20260508052758 10 331 0.0 0.0 0.00 0.00 0.00 69 1014.6
20260508052255 10 331 0.0 0.0 0.00 0.00 0.00 70 1014.5
20260508051750 10 331 0.0 0.0 0.00 0.00 0.00 68 1014.9
20260508051246 10 331 0.0 0.0 0.00 0.00 0.00 68 1015.0
20260508050743 10 331 0.0 0.0 0.00 0.00 0.00 69 1015.1
20260508050240 10 331 0.0 0.0 0.00 0.00 0.00 70 1014.9
20260508045735 10 331 0.0 0.0 0.00 0.00 0.00 71 1015.0
20260508045234 10 331 0.0 0.0 0.00 0.00 0.00 73 1015.0
20260508044731 9 331 0.0 0.0 0.00 0.00 0.00 73 1015.0
20260508044228 9 331 0.0 0.0 0.00 0.00 0.00 73 1015.0
20260508043723 9 331 0.0 0.0 0.00 0.00 0.00 76 1015.1
20260508043221 8 331 0.0 0.0 0.00 0.00 0.00 81 1015.2
20260508042718 8 331 0.0 0.0 0.00 0.00 0.00 83 1015.3
20260508042215 8 331 0.0 0.0 0.00 0.00 0.00 84 1015.3
20260508041711 8 331 0.0 0.0 0.00 0.00 0.00 87 1015.3
20260508041209 8 331 0.0 0.0 0.00 0.00 0.00 86 1015.3
20260508040705 8 331 0.0 0.0 0.00 0.00 0.00 86 1015.5
20260508040202 8 331 0.0 0.0 0.00 0.00 0.00 85 1015.4
20260508035659 8 331 0.0 0.0 0.00 0.00 0.00 85 1015.4
20260508035157 8 331 0.0 0.0 0.00 0.00 0.00 85 1015.2
20260508034653 8 331 0.0 0.0 0.00 0.00 0.00 84 1015.4
20260508034150 8 331 0.0 0.0 0.00 0.00 0.00 83 1015.5
20260508033648 8 331 0.0 0.0 0.00 0.00 0.00 84 1015.4
20260508033146 9 331 0.0 0.0 0.00 0.00 0.00 80 1015.1
20260508032643 9 331 0.0 0.0 0.00 0.00 0.00 80 1015.4
20260508032140 9 331 0.0 0.0 0.00 0.00 0.00 79 1015.2
20260508031637 9 331 0.0 0.0 0.00 0.00 0.00 79 1015.2
20260508031133 9 331 0.0 0.0 0.00 0.00 0.00 80 1015.2
20260508030629 10 331 0.0 0.0 0.00 0.00 0.00 77 1015.0
20260508030127 10 331 0.0 0.0 0.00 0.00 0.00 77 1015.2
20260508025623 10 331 0.0 0.0 0.00 0.00 0.00 77 1015.0
20260508025121 10 331 0.0 0.0 0.00 0.00 0.00 80 1015.1
20260508024616 10 331 0.0 0.0 0.00 0.00 0.00 73 1014.9
20260508024114 10 331 0.0 0.0 0.00 0.00 0.00 81 1015.1
20260508023610 10 331 0.0 0.0 0.00 0.00 0.00 78 1015.1
20260508023107 10 331 0.0 0.0 0.00 0.00 0.00 78 1014.9
20260508022603 10 331 0.0 0.0 0.00 0.00 0.00 76 1014.9
20260508022101 10 331 0.0 0.0 0.00 0.00 0.00 76 1014.9
20260508021556 10 331 0.0 0.0 0.00 0.00 0.00 75 1014.5
20260508021052 11 331 0.0 0.0 0.00 0.00 0.00 73 1014.8
20260508020550 11 331 0.0 0.0 0.00 0.00 0.00 76 1014.6
20260508020047 11 331 0.0 0.0 0.00 0.00 0.00 72 1014.5
20260508015545 11 331 0.0 0.0 0.00 0.00 0.00 65 1014.5
20260508015042 11 331 0.0 0.0 0.00 0.00 0.00 73 1014.4
20260508014538 11 331 0.0 0.0 0.00 0.00 0.00 71 1014.2
20260508014034 12 331 0.0 0.0 0.00 0.00 0.00 65 1014.2
20260508013530 12 331 0.0 0.0 0.00 0.00 0.00 64 1014.3
20260508013028 12 331 0.0 0.0 0.00 0.00 0.00 66 1014.1
20260508012525 12 331 0.0 0.0 0.00 0.00 0.00 68 1014.1
20260508012022 12 331 0.0 0.0 0.00 0.00 0.00 55 1014.1
20260508011520 13 331 0.0 0.0 0.00 0.00 0.00 58 1014.1
20260508011017 13 331 0.0 0.0 0.00 0.00 0.00 54 1013.9
20260508010514 13 331 0.0 0.0 0.00 0.00 0.00 57 1013.9
20260508010012 14 331 0.0 0.0 0.00 0.00 0.00 50 1013.9
20260508005508 15 331 0.0 0.0 0.00 0.00 0.00 48 1014.1
20260508005005 15 331 0.0 0.0 0.00 0.00 0.00 47 1013.8
20260508004500 15 331 0.0 0.0 0.00 0.00 0.00 47 1013.7
20260508003958 15 331 0.0 0.0 0.00 0.00 0.00 45 1013.7
20260508003454 15 331 0.0 0.0 0.00 0.00 0.00 45 1013.6
20260508002951 16 331 0.0 0.0 0.00 0.00 0.00 43 1013.6
20260508002448 16 331 0.0 0.0 0.00 0.00 0.00 45 1013.7
20260508001944 16 331 0.0 0.0 0.00 0.00 0.00 43 1013.5
20260508001440 16 331 0.0 0.0 0.00 0.00 0.00 42 1013.5
20260508000937 16 330 0.0 0.0 0.00 0.00 0.00 42 1013.7
20260508000434 16 331 0.0 0.0 0.00 0.00 0.00 42 1013.6
20260507235930 17 329 0.0 1.6 0.00 0.00 0.00 44 1013.5
20260507235427 17 331 0.0 0.0 0.00 0.00 0.00 43 1013.6
20260507234924 17 331 0.0 0.0 0.00 0.00 0.00 42 1013.5
20260507234421 17 331 0.0 0.0 0.00 0.00 0.00 41 1013.4
20260507233917 17 332 0.0 0.0 0.00 0.00 0.00 42 1013.6
20260507233414 17 332 0.0 1.6 0.00 0.00 0.00 41 1013.7
20260507232913 17 5 1.6 1.6 0.00 0.00 0.00 41 1013.7
20260507232409 17 6 0.0 0.0 0.00 0.00 0.00 38 1013.9
20260507231906 17 305 0.0 0.0 0.00 0.00 0.00 39 1013.8
20260507231402 17 305 0.0 1.6 0.00 0.00 0.00 40 1014.2
20260507230859 18 305 0.0 0.0 0.00 0.00 0.00 40 1013.9
20260507230356 18 304 0.0 1.6 0.00 0.00 0.00 40 1014.1
20260507225856 18 102 0.0 1.6 0.00 0.00 0.00 38 1014.2
20260507225353 18 302 0.0 1.6 0.00 0.00 0.00 39 1014.1
20260507224849 18 321 0.0 1.6 0.00 0.00 0.00 40 1014.2
20260507224346 19 310 0.0 1.6 0.00 0.00 0.00 40 1014.3
20260507223841 19 287 0.0 0.0 0.00 0.00 0.00 41 1014.3
20260507223338 20 275 0.0 1.6 0.00 0.00 0.00 36 1014.4
20260507222835 20 275 1.6 1.6 0.00 0.00 0.00 34 1014.3
20260507222331 20 262 3.2 3.2 0.00 0.00 0.00 34 1014.4
20260507221829 21 256 0.0 1.6 0.00 0.00 0.00 35 1014.4
20260507221325 21 273 0.0 3.2 0.00 0.00 0.00 32 1014.7
20260507220821 21 291 0.0 1.6 0.00 0.00 0.00 35 1014.3
20260507220320 21 267 0.0 1.6 0.00 0.00 0.00 38 1014.6
20260507215815 21 303 0.0 1.6 0.00 0.00 0.00 33 1014.6
20260507215313 22 264 0.0 3.2 0.00 0.00 0.00 34 1014.6
20260507214810 21 268 0.0 1.6 0.00 0.00 0.00 36 1014.4
20260507214308 20 258 1.6 1.6 0.00 0.00 0.00 36 1014.4
20260507213802 20 300 1.6 1.6 0.00 0.00 0.00 36 1014.4
20260507213259 21 28 1.6 1.6 0.00 0.00 0.00 32 1014.6
20260507212756 21 266 0.0 1.6 0.00 0.00 0.00 32 1014.5
20260507212252 21 272 0.0 1.6 0.00 0.00 0.00 31 1014.5
20260507211749 21 330 1.6 1.6 0.00 0.00 0.00 33 1014.6
20260507211245 21 294 3.2 4.8 0.00 0.00 0.00 32 1014.7
20260507210742 21 262 0.0 4.8 0.00 0.00 0.00 36 1014.7
20260507210239 21 304 1.6 3.2 0.00 0.00 0.00 31 1014.8
20260507205736 21 51 0.0 1.6 0.00 0.00 0.00 31 1014.8
20260507205233 21 285 1.6 3.2 0.00 0.00 0.00 31 1014.8
20260507204729 20 292 3.2 9.7 0.00 0.00 0.00 32 1014.8
20260507204227 20 284 3.2 6.4 0.00 0.00 0.00 33 1015.0
20260507203724 20 294 1.6 9.7 0.00 0.00 0.00 34 1015.1
20260507203221 20 311 4.8 6.4 0.00 0.00 0.00 29 1015.2
20260507202718 21 276 3.2 4.8 0.00 0.00 0.00 31 1015.2
20260507202214 21 333 1.6 1.6 0.00 0.00 0.00 31 1015.1
20260507201709 20 232 0.0 1.6 0.00 0.00 0.00 41 1015.6
20260507201206 20 212 1.6 1.6 0.00 0.00 0.00 32 1015.4
20260507200702 20 73 0.0 6.4 0.00 0.00 0.00 30 1015.6
20260507200158 20 316 1.6 3.2 0.00 0.00 0.00 33 1015.7
20260507195655 19 300 4.8 9.7 0.00 0.00 0.00 31 1015.7
20260507195152 20 312 4.8 6.4 0.00 0.00 0.00 33 1015.7
20260507194649 20 226 1.6 6.4 0.00 0.00 0.00 37 1015.9
20260507194144 19 311 0.0 1.6 0.00 0.00 0.00 33 1016.1
20260507193641 20 262 1.6 4.8 0.00 0.00 0.00 33 1016.0
20260507193139 20 45 0.0 1.6 0.00 0.00 0.00 31 1015.9
20260507192634 20 66 0.0 3.2 0.00 0.00 0.00 37 1016.0
20260507192132 20 264 1.6 3.2 0.00 0.00 0.00 32 1016.0
20260507191627 20 283 1.6 3.2 0.00 0.00 0.00 32 1015.9
20260507191124 20 297 1.6 3.2 0.00 0.00 0.00 33 1015.9
20260507190622 20 245 0.0 1.6 0.00 0.00 0.00 31 1015.9
20260507190120 20 262 3.2 3.2 0.00 0.00 0.00 33 1016.0
20260507185618 20 37 1.6 1.6 0.00 0.00 0.00 30 1016.0
20260507185114 19 311 1.6 3.2 0.00 0.00 0.00 32 1016.2
20260507184613 20 308 3.2 6.4 0.00 0.00 0.00 30 1016.1
20260507184110 20 319 0.0 4.8 0.00 0.00 0.00 35 1016.3
20260507183606 20 325 0.0 1.6 0.00 0.00 0.00 35 1016.3
20260507183103 19 338 1.6 3.2 0.00 0.00 0.00 33 1016.4
20260507182600 20 268 1.6 4.8 0.00 0.00 0.00 38 1016.6
20260507182055 19 298 3.2 3.2 0.00 0.00 0.00 39 1016.6
20260507181553 20 124 1.6 3.2 0.00 0.00 0.00 34 1016.5
20260507181049 20 310 1.6 3.2 0.00 0.00 0.00 34 1016.7
20260507180545 20 313 0.0 1.6 0.00 0.00 0.00 29 1016.7
20260507180042 19 316 1.6 3.2 0.00 0.00 0.00 35 1016.7
20260507175538 18 341 0.0 3.2 0.00 0.00 0.00 30 1016.8
20260507175037 19 240 0.0 3.2 0.00 0.00 0.00 36 1017.0
20260507174533 19 9 0.0 1.6 0.00 0.00 0.00 33 1016.9
20260507174031 19 246 0.0 1.6 0.00 0.00 0.00 35 1017.1
20260507173527 20 326 1.6 3.2 0.00 0.00 0.00 31 1017.5
20260507173025 20 315 0.0 1.6 0.00 0.00 0.00 34 1017.3
20260507172520 19 299 1.6 1.6 0.00 0.00 0.00 33 1017.4
20260507172018 19 308 1.6 1.6 0.00 0.00 0.00 34 1017.7
20260507171513 19 140 0.0 1.6 0.00 0.00 0.00 33 1017.5
20260507171011 19 238 0.0 3.2 0.00 0.00 0.00 37 1017.6
20260507170507 18 297 0.0 6.4 0.00 0.00 0.00 39 1017.5
20260507170004 19 20 1.6 1.6 0.00 0.00 0.00 33 1017.7
20260507165500 18 248 1.6 1.6 0.00 0.00 0.00 34 1017.6
20260507164956 18 266 0.0 3.2 0.00 0.00 0.00 33 1017.7
20260507164453 18 28 1.6 3.2 0.00 0.00 0.00 38 1018.1
20260507163949 18 258 0.0 3.2 0.00 0.00 0.00 39 1018.1
20260507163447 17 291 3.2 3.2 0.00 0.00 0.00 38 1018.1
20260507162944 18 318 0.0 3.2 0.00 0.00 0.00 35 1018.0
20260507162439 18 325 0.0 3.2 0.00 0.00 0.00 37 1018.2
20260507161937 18 230 1.6 1.6 0.00 0.00 0.00 36 1018.2
20260507161433 18 28 0.0 1.6 0.00 0.00 0.00 37 1018.0
20260507160930 17 10 0.0 1.6 0.00 0.00 0.00 37 1018.1
20260507160426 17 311 1.6 3.2 0.00 0.00 0.00 36 1018.3
20260507155921 16 56 1.6 1.6 0.00 0.00 0.00 36 1018.4
20260507155418 16 306 1.6 1.6 0.00 0.00 0.00 42 1018.4
20260507154915 16 271 1.6 3.2 0.00 0.00 0.00 41 1018.3
20260507154412 16 81 0.0 1.6 0.00 0.00 0.00 46 1018.3
20260507153909 16 0 1.6 3.2 0.00 0.00 0.00 42 1018.3
20260507153405 15 354 0.0 1.6 0.00 0.00 0.00 50 1018.3
20260507152902 15 287 0.0 1.6 0.00 0.00 0.00 49 1018.2
20260507152358 15 332 0.0 1.6 0.00 0.00 0.00 45 1018.3
20260507151854 15 49 0.0 0.0 0.00 0.00 0.00 48 1018.6
20260507151351 15 89 1.6 3.2 0.00 0.00 0.00 46 1018.7
20260507150848 15 307 0.0 1.6 0.00 0.00 0.00 43 1018.7
20260507150344 15 134 0.0 1.6 0.00 0.00 0.00 48 1018.6
20260507145840 14 289 0.0 1.6 0.00 0.00 0.00 56 1018.6
20260507145337 14 289 1.6 1.6 0.00 0.00 0.00 48 1018.6
20260507144834 14 290 1.6 1.6 0.00 0.00 0.00 51 1018.7
20260507144331 13 289 1.6 3.2 0.00 0.00 0.00 51 1018.8
20260507143828 14 42 1.6 1.6 0.00 0.00 0.00 51 1018.6
20260507143325 13 93 0.0 1.6 0.00 0.00 0.00 55 1018.8
20260507142821 13 71 0.0 0.0 0.00 0.00 0.00 56 1018.7
20260507142318 13 49 0.0 1.6 0.00 0.00 0.00 54 1018.8
20260507141814 13 46 0.0 1.6 0.00 0.00 0.00 54 1018.8
20260507141311 13 17 0.0 0.0 0.00 0.00 0.00 53 1018.8
20260507140807 12 359 0.0 0.0 0.00 0.00 0.00 58 1018.6
20260507140305 12 71 0.0 1.6 0.00 0.00 0.00 58 1019.0
20260507135802 12 69 0.0 1.6 0.00 0.00 0.00 58 1018.7
20260507135259 12 76 0.0 0.0 0.00 0.00 0.00 63 1018.9
20260507134755 11 76 0.0 0.0 0.00 0.00 0.00 59 1019.1
20260507134252 11 77 0.0 0.0 0.00 0.00 0.00 62 1019.1
20260507133748 11 227 0.0 1.6 0.00 0.00 0.00 59 1018.8
20260507133244 11 232 0.0 0.0 0.00 0.00 0.00 64 1019.1
20260507132742 10 232 0.0 0.0 0.00 0.00 0.00 72 1019.1
20260507132239 10 232 0.0 0.0 0.00 0.00 0.00 73 1018.9
20260507131736 9 232 0.0 0.0 0.00 0.00 0.00 73 1018.9
20260507131233 8 232 0.0 0.0 0.00 0.00 0.00 77 1019.0
20260507130729 8 232 0.0 0.0 0.00 0.00 0.00 73 1018.9
20260507130227 8 232 0.0 0.0 0.00 0.00 0.00 74 1018.9
20260507125726 7 232 0.0 0.0 0.00 0.00 0.00 74 1018.8
20260507125223 7 232 0.0 0.0 0.00 0.00 0.00 79 1018.8
20260507124720 7 232 0.0 0.0 0.00 0.00 0.00 82 1018.8
20260507124217 6 233 0.0 0.0 0.00 0.00 0.00 82 1018.8
20260507123715 6 233 0.0 0.0 0.00 0.00 0.00 87 1018.7
20260507123212 6 234 0.0 0.0 0.00 0.00 0.00 89 1018.6
20260507122707 5 234 0.0 0.0 0.00 0.00 0.00 88 1018.7
20260507122203 5 234 0.0 0.0 0.00 0.00 0.00 87 1018.5
20260507121659 5 234 0.0 0.0 0.00 0.00 0.00 90 1018.6
20260507121155 5 234 0.0 0.0 0.00 0.00 0.00 93 1018.6
20260507120651 4 234 0.0 0.0 0.00 0.00 0.00 94 1018.6
20260507120148 4 212 0.0 0.0 0.00 0.00 0.00 94 1018.5
20260507115644 3 212 0.0 0.0 0.00 0.00 0.00 94 1018.5
20260507115140 3 212 0.0 0.0 0.00 0.00 0.00 95 1018.5
20260507114636 3 212 0.0 0.0 0.00 0.00 0.00 95 1018.6
20260507114134 3 212 0.0 0.0 0.00 0.00 0.00 95 1018.3
20260507113631 3 211 0.0 0.0 0.00 0.00 0.00 95 1018.2
20260507113128 3 211 0.0 0.0 0.00 0.00 0.00 95 1018.1
20260507112626 3 211 0.0 0.0 0.00 0.00 0.00 95 1018.4
20260507112122 3 212 0.0 0.0 0.00 0.00 0.00 95 1018.3
20260507111619 3 212 0.0 0.0 0.00 0.00 0.00 95 1018.1
20260507111116 3 212 0.0 0.0 0.00 0.00 0.00 95 1018.0
20260507110612 3 212 0.0 0.0 0.00 0.00 0.00 95 1018.0
20260507110109 3 211 0.0 0.0 0.00 0.00 0.00 95 1018.0
20260507105606 3 212 0.0 0.0 0.00 0.00 0.00 95 1018.0
20260507105102 3 212 0.0 0.0 0.00 0.00 0.00 95 1018.0
20260507104600 3 212 0.0 0.0 0.00 0.00 0.00 95 1018.0
20260507104056 4 212 0.0 0.0 0.00 0.00 0.00 95 1017.9
20260507103552 4 212 0.0 0.0 0.00 0.00 0.00 95 1017.7
20260507103049 4 212 0.0 0.0 0.00 0.00 0.00 95 1017.8
20260507102545 4 212 0.0 0.0 0.00 0.00 0.00 95 1017.7
20260507102041 3 212 0.0 0.0 0.00 0.00 0.00 95 1018.1
20260507101537 3 212 0.0 0.0 0.00 0.00 0.00 95 1017.9
20260507101033 3 212 0.0 0.0 0.00 0.00 0.00 95 1017.9
20260507100531 3 212 0.0 0.0 0.00 0.00 0.00 95 1017.9
20260507100029 3 212 0.0 0.0 0.00 0.00 0.00 95 1017.8
20260507095527 3 212 0.0 0.0 0.00 0.00 0.00 95 1018.0
20260507095023 3 212 0.0 0.0 0.00 0.00 0.00 95 1017.9
20260507094519 3 212 0.0 0.0 0.00 0.00 0.00 95 1017.9
20260507094016 3 212 0.0 0.0 0.00 0.00 0.00 94 1017.8
20260507093514 3 212 0.0 0.0 0.00 0.00 0.00 94 1017.8
20260507093012 3 212 0.0 0.0 0.00 0.00 0.00 94 1017.7
20260507092508 3 212 0.0 0.0 0.00 0.00 0.00 94 1017.8
20260507092005 3 212 0.0 0.0 0.00 0.00 0.00 94 1017.6
20260507091502 3 212 0.0 0.0 0.00 0.00 0.00 94 1017.9
20260507090957 3 212 0.0 0.0 0.00 0.00 0.00 94 1017.8
20260507090453 3 212 0.0 0.0 0.00 0.00 0.00 94 1017.9
20260507085950 3 212 0.0 0.0 0.00 0.00 0.00 93 1018.0
20260507085448 3 212 0.0 0.0 0.00 0.00 0.00 93 1017.9
20260507084944 3 212 0.0 0.0 0.00 0.00 0.00 93 1018.1
20260507084441 3 212 0.0 0.0 0.00 0.00 0.00 93 1017.9
20260507083938 3 212 0.0 0.0 0.00 0.00 0.00 93 1017.9
20260507083434 3 212 0.0 0.0 0.00 0.00 0.00 93 1018.0
20260507082931 3 212 0.0 0.0 0.00 0.00 0.00 93 1018.2
20260507082427 3 212 0.0 0.0 0.00 0.00 0.00 92 1017.9
20260507081924 3 212 0.0 0.0 0.00 0.00 0.00 92 1018.1
20260507081420 3 212 0.0 0.0 0.00 0.00 0.00 92 1018.1
20260507080917 3 212 0.0 0.0 0.00 0.00 0.00 92 1018.1
20260507080413 3 212 0.0 0.0 0.00 0.00 0.00 92 1018.1
20260507075908 4 212 0.0 0.0 0.00 0.00 0.00 92 1018.2
20260507075405 4 212 0.0 0.0 0.00 0.00 0.00 92 1018.3
20260507074901 4 212 0.0 0.0 0.00 0.00 0.00 91 1018.4
20260507074358 4 212 0.0 0.0 0.00 0.00 0.00 90 1018.5
20260507073856 4 212 0.0 0.0 0.00 0.00 0.00 90 1018.3
20260507073352 4 212 0.0 0.0 0.00 0.00 0.00 90 1018.3
20260507072849 4 212 0.0 0.0 0.00 0.00 0.00 90 1018.4
20260507072347 4 212 0.0 0.0 0.00 0.00 0.00 90 1018.4
20260507071844 4 212 0.0 0.0 0.00 0.00 0.00 89 1018.2
20260507071341 4 212 0.0 0.0 0.00 0.00 0.00 88 1018.3
20260507070837 5 212 0.0 0.0 0.00 0.00 0.00 88 1018.3
20260507070335 5 212 0.0 0.0 0.00 0.00 0.00 89 1018.5
20260507065831 5 212 0.0 0.0 0.00 0.00 0.00 88 1018.3